Regional Weather Roundup
Issued by NWS

Home | Current Version | Previous Version | Graphics & Text | Print | Product List | Glossary On
Versions: 1 2 3 4 5 6 7 8 9 10 11 12 13 14 15 16 17 18 19 20 21 22 23 24 25 26 27 28
000
ASUS45 KTFX 310910
RWRMT
MONTANA REGIONAL WEATHER ROUNDUP
NATIONAL WEATHER SERVICE GREAT FALLS MT
300 AM MDT TUE MAY 31 2016

NOTE: "FAIR" INDICATES FEW OR NO CLOUDS BELOW 12000 FEET WITH NO
SIGNIFICANT WEATHER AND/OR OBSTRUCTIONS TO VISIBILITY.

MTZ001>007-043-311000-
WEST OF THE DIVIDE

CITY           SKY/WX    TMP DP  RH WIND       PRES   REMARKS
KALISPELL      PTCLDY    49  36  61 N13       30.17F
MISSOULA       CLEAR     42  35  76 CALM      30.20S
BUTTE          PTCLDY    36  27  69 E5        30.22F
MULLAN PASS    CLEAR     43  25  49 NW7       30.24S
ANACONDA         N/A     39  30  70 CALM      30.22S
DEER LODGE       N/A     41  34  75 W6        30.24R
EUREKA           N/A     39  37  93 CALM      30.22S
HAMILTON         N/A     43  32  65 CALM      30.19S
LIBBY            N/A     39  36  87 CALM      30.21R
$$

MTZ008-052>055-311000-
SOUTHWEST MONTANA

CITY           SKY/WX    TMP DP  RH WIND       PRES   REMARKS
BOZEMAN        CLEAR     41  34  76 SW5       30.21R
DILLON         CLEAR     40  29  64 SE6       30.19S
W YELLOWSTONE  CLEAR     28  25  86 CALM      30.22S
ENNIS          CLEAR     37  32  81 E3        30.25S
$$

MTZ009-010-012-014-046-048-049-054-311000-
EAST SLOPES AND CENTRAL MONTANA

CITY           SKY/WX    TMP DP  RH WIND       PRES   REMARKS
CUT BANK       PTCLDY    40  37  89 NW15      30.22S
GREAT FALLS    CLOUDY    43  38  82 NW9       30.22S
MALMSTROM AFB  PTCLDY    44  39  81 W9        30.22S
HELENA         CLEAR     46  36  68 W7        30.22R
CHOTEAU          N/A     41  37  87 NW8       30.25R
$$

MTZ011-013-016-021-045-047-050-051-311000-
NORTH CENTRAL MONTANA

CITY           SKY/WX    TMP DP  RH WIND       PRES   REMARKS
HAVRE          LGT RAIN  48  44  86 NW22G31   30.09S
LEWISTOWN      PTCLDY    43  37  79 W14       30.13F
N BAR RANCH    CLOUDY    43  36  75 W18G29    30.08R
CHINOOK          N/A     48  46  93 W17G24    30.05S
$$

MTZ017>020-022>027-061-062-311000-
NORTHEAST MONTANA

CITY           SKY/WX    TMP DP  RH WIND       PRES   REMARKS
GLASGOW        LGT RAIN  49  48  97 W15       29.86F
JORDAN           N/A     48  46  93 W15       29.94F
SIDNEY         MOCLDY    48  45  87 W14       29.83F
WOLF POINT     CLOUDY    51  47  86 W13       29.84F
POPLAR           N/A     48  46  93 W6        29.84F
$$

MTZ028>42-056>058-311000-
SOUTHCENTRAL AND SOUTHEAST MONTANA

CITY           SKY/WX    TMP DP  RH WIND       PRES   REMARKS
BAKER          CLOUDY    46  40  79 W20       29.91F
BILLINGS       PTCLDY    49  35  58 W17       30.11S
LIVINGSTON     CLEAR     45  32  60 W9        30.19S
MILES CITY     LGT RAIN  48  43  82 W23       29.95F
FORSYTH          N/A     46  46 100 W18G28    30.00S
$$

REGIONAL REPORTS...DAKOTAS

CITY           SKY/WX    TMP DP  RH WIND       PRES   REMARKS
WILLISTON      LGT RAIN  51  48  89 W10       29.80F
MINOT          LGT RAIN  57  54  89 NW7       29.72F
DICKINSON      CLEAR     42  39  89 W12       29.82F
BEACH          MOCLDY    46  46 100 W18       29.89F
CROSBY         LGT RAIN  54  54 100 N15       29.79F
WATFORD CITY   CLOUDY    46  46 100 W13G18    29.81F
BISMARCK       CLOUDY    54  51  90 W14G22    29.78F
GRAND FORKS    MOCLDY    61  57  87 SE16      29.67F
FARGO          CLOUDY    62  58  86 S8        29.71S
BUFFALO SD       N/A     50  37  61 W30G44    29.88F
RAPID CITY     CLOUDY    48  33  56 NW13      30.01F
$$

REGIONAL REPORTS...WYOMING/IDAHO/WASHINGTON

CITY           SKY/WX    TMP DP  RH WIND       PRES   REMARKS
GILLETTE       CLEAR     43  41  93 SW13      30.07F
SHERIDAN       CLEAR     48  35  60 NW22G30   30.09S
BUFFALO WY     CLEAR     44  33  65 NW12G21   30.11S
CODY           CLEAR     39  34  81 S3        30.16F
YELLOWSTONE LA   N/A     29  23  78 NW3       30.26R
IDAHO FALLS    CLEAR     42  35  76 NE5       30.13R
SALMON         CLEAR     43  27  52 SE3       30.17S
BOISE          CLEAR     52  35  52 SW7       30.08R
SPOKANE        PTCLDY    52  33  48 SE3       30.17R
$$

REGIONAL REPORTS...ALBERTA

CITY           SKY/WX    TMP DP  RH WIND       PRES   REMARKS
EDMONTON       MOCLDY    45  37  76 NW5       30.22R
CALGARY        PTCLDY    46  37  71 NW3       30.25F
LETHBRIDGE     MOCLDY    41  37  87 W13       30.24S
MEDICINE HAT   CLOUDY    48  46  93 NW15G21   30.13S
WATERTON GATE    N/A     41  39  93 CALM        N/A
CARDSTON         N/A     45  41  87 W5          N/A
$$

REGIONAL REPORTS...SASKATCHEWAN

CITY           SKY/WX    TMP DP  RH WIND       PRES   REMARKS
SWIFT CURRENT  CLOUDY    50  50 100 N13       29.98S
REGINA         LGT RAIN  52  52 100 N13       29.90S
SASKATOON      MOCLDY    48  48 100 N8        30.04S
CYPRESS HILLS    N/A     43  41  93 N13G22      N/A
VAL MARIE        N/A     50  48  93 N20G26      N/A
ROCKGLEN         N/A     48  48 100 N7          N/A
ASSINIBOIA       N/A     50  46  87 NW12        N/A
$$




USA.gov is the U.S. government's official web portal to all federal, state and local government web resources and services.